www.pogodaiklimat.ru

Погода и климат >> Архив погоды >> Антарктида >> Mawson


ПОГОДА в Mawson

  • Прогноз погоды в Mawson
  • Монитор погоды в Mawson
  • Климат города

АРХИВ ПОГОДЫ в Mawson

Время (UTC), дата Ветер
(напр.,м/с)
 
Видим.   Явления Облачность Т
(С)
Тd
(С)
f
(%)
Тe
(С)
Тes
(С)
Комфортность P
(гПа)
Po
(гПа)
Тmin
(С)
Tmax
(С)
R
(мм)
R24
(мм)
S
(см)
09 11.08 ЮВ 13 25 км метель 10/0
[As trans Cs]
-17.8 -24.4 56 -32 -32 опасность
обморожения
1006.6 1004.5
12 11.08 СВ 8 30 км осадки на расстоянии 10/0
[As op Cs]
-18.8 -24.6 60 -31 -31 опасность
обморожения
1008.8 1006.7
15 11.08 В 11 н/о н/о -16.9 -22.6 61 -30 -30 1005.7 1003.6 -16.3
18 11.08 ЮВ 24 н/о н/о -17.0 -18.5 88 -35 -35 опасность
обморожения
1002.0 999.9
21 11.08 ЮВ 22 н/о н/о -15.6 -16.9 90 -34 -34 опасность
обморожения
994.5 992.4
00 12.08 В 18 н/о н/о -13.1 -14.1 92 -27 -27 994.6 992.5
03 12.08 ЮВ 23 <100 м снег н/о -13.8 -14.9 91 -30 -30 991.8 989.7 -20.6
06 12.08 ЮВ 27 <100 м снег н/о -13.7 -14.7 92 -30 -30 988.7 986.6
09 12.08 ЮВ 24 <100 м снег н/о -11.6 -12.5 93 -27 -27 985.2 983.1
12 12.08 ЮВ 22 <100 м снег н/о -11.9 -12.8 93 -27 -27 982.9 980.8
15 12.08 ЮВ 17 н/о н/о -11.8 -12.8 92 -25 -25 981.9 979.8 -11.1
18 12.08 ЮВ 15 н/о н/о -12.6 -14.9 83 -26 -26 980.9 978.8
21 12.08 Ю 11 н/о н/о -13.6 -17.1 75 -26 -26 981.9 979.8
00 13.08 ЮВ 5 н/о н/о -13.9 -18.8 66 -22 -22 981.5 979.4
03 13.08 Ю 12 10 км метель 9/1 1500 м
[Sc Ac As]
-17.4 -22.4 65 -31 -31 опасность
обморожения
979.2 977.1 -14.4
06 13.08 Ю 7 40 км 1/1 1500 м
[Sc Ac trans Ci fib]
-18.3 -24.7 57 -30 -30 978.3 976.2
09 13.08 ЮВ 4 40 км 1/0
[Ac trans Ci fib]
-18.2 -26.0 50 -26 -26 977.6 975.6
12 13.08 Ю 10 40 км 1/0
[Ci sp]
-21.2 -27.2 58 -35 -35 опасность
обморожения
976.4 974.4
15 13.08 Ю 10 н/о н/о -21.9 -27.5 60 -36 -36 опасность
обморожения
974.5 972.5 -11.0
18 13.08 ЮЗ 3 н/о н/о -20.6 -28.9 47 -28 -28 973.3 971.3
21 13.08 ЮВ 11 н/о н/о -20.7 -26.4 60 -35 -35 опасность
обморожения
971.5 969.5
00 14.08 ЮВ 13 н/о н/о -17.0 -24.3 53 -31 -31 опасность
обморожения
972.0 970.0
03 14.08 ЮВ 12 15 км метель 5/1 1500 м
[Sc Ci sp]
-17.9 -24.9 54 -32 -32 опасность
обморожения
972.1 970.1 -22.2
06 14.08 ЮВ 9 20 км позёмок {метель} 1/0
[Ci sp]
-16.6 -22.9 58 -29 -29 972.3 970.3
09 14.08 ЮВ 13 20 км метель 1/0
[Ci sp]
-16.5 -23.0 57 -30 -30 974.8 972.8
12 14.08 ЮВ 15 3000 м метель 1/0
[Ci fib]
-15.7 -21.5 61 -30 -30 975.5 973.5
15 14.08 ЮВ 18 н/о н/о -17.4 -21.9 68 -33 -33 опасность
обморожения
976.2 974.2 -13.7
18 14.08 ЮВ 13 н/о н/о -16.3 -23.0 56 -30 -30 976.2 974.2
21 14.08 ЮВ 17 н/о н/о -15.9 -20.3 69 -31 -31 опасность
обморожения
976.1 974.1
00 15.08 ЮВ 16 н/о н/о -15.9 -19.9 71 -31 -31 опасность
обморожения
977.1 975.1
03 15.08 ЮВ 20 н/о н/о -16.2 -18.1 85 -32 -32 опасность
обморожения
977.8 975.8 -19.9
06 15.08 ЮВ 17 10 км метель 9/0
[Ac As]
-15.2 -19.4 70 -30 -30 980.5 978.4
09 15.08 ЮВ 13 15 км позёмок {метель} 9/0
[Ac As]
-13.2 -20.5 54 -26 -26 982.7 980.6
12 15.08 ЮВ 13 30 км 8/5 1500 м
[Sc As trans Ci sp]
-14.0 -21.7 52 -27 -27 984.5 982.4
15 15.08 ЮВ 11 н/о н/о -13.9 -22.5 48 -26 -26 986.1 984.0 -13.0
18 15.08 ЮВ 14 н/о н/о -14.1 -21.8 52 -27 -27 987.6 985.5
21 15.08 ЮВ 16 н/о н/о -13.4 -19.5 60 -27 -27 988.8 986.7
00 16.08 ЮВ 17 н/о н/о -13.6 -18.7 65 -28 -28 989.9 987.8
03 16.08 ЮВ 17 20 км метель 9/5 1500 м
[Sc Ac As]
-13.0 -19.9 56 -27 -27 990.3 988.2 -16.7
06 16.08 ЮВ 16 20 км метель 5/4 1500 м
[Sc Cs]
-13.9 -19.8 61 -28 -28 990.1 988.0
09 16.08 ЮВ 16 8000 м метель 4/3 1500 м
[Sc Cs]
-15.2 -18.0 79 -30 -30 987.6 985.5
12 16.08 ЮВ 21 100 м сильная метель 5/3 1500 м
[Sc Cs]
-16.3 -17.9 87 -33 -33 опасность
обморожения
983.9 981.8
15 16.08 ЮВ 30 н/о н/о -16.1 -17.5 89 -35 -35 опасность
обморожения
976.6 974.6 -12.1
18 16.08 ЮВ 29 н/о н/о -15.7 -17.1 89 -34 -34 опасность
обморожения
972.7 970.7
21 16.08 ЮВ 29 н/о н/о -13.9 -15.0 91 -31 -31 опасность
обморожения
968.8 966.8
00 17.08 ЮВ 29 н/о н/о -13.6 -15.6 85 -31 -31 опасность
обморожения
967.4 965.4
03 17.08 ЮВ 25 100 м сильная метель 9/0
[As op]
-16.6 -18.9 82 -34 -34 опасность
обморожения
968.3 966.3 -16.8
06 17.08 Ю 24 3000 м метель 10/1 1500 м
[Sc As trans]
-17.2 -20.4 76 -35 -35 опасность
обморожения
968.5 966.5
09 17.08 Ю 19 25 км позёмок {метель} 10/1 1500 м
[Sc As trans]
-16.7 -21.2 68 -33 -33 опасность
обморожения
969.1 967.1
12 17.08 Ю 20 30 км позёмок 10/1 1500 м
[Sc As op]
-17.3 -22.4 64 -34 -34 опасность
обморожения
967.8 965.8
15 17.08 Ю 20 н/о н/о -18.7 -26.3 51 -36 -36 опасность
обморожения
968.5 966.5 -13.1
18 17.08 ЮВ 12 н/о н/о -19.7 -27.4 50 -34 -34 опасность
обморожения
969.3 967.3
21 17.08 Ю 15 н/о н/о -20.7 -27.3 55 -37 -37 опасность
обморожения
969.3 967.3
00 18.08 Ю 13 н/о н/о -20.7 -28.6 49 -36 -36 опасность
обморожения
970.6 968.6
03 18.08 Ю 11 30 км 9/1 1500 м
[Sc As op Cs]
-22.5 -30.2 49 -38 -38 опасность
обморожения
972.3 970.3 -21.8
06 18.08 ЮВ 5 40 км 4/1 1500 м
[Sc Cs]
-21.2 -29.7 46 -32 -31 опасность
обморожения
973.4 971.4

 

Местоположение метеостанции Mawson (Антарктида): широта -67.60 долгота 62.87 высота над уровнем моря 16 м.

В архиве по умолчанию представлена погода в Mawson за последнюю неделю. Архивные данные за месяц целиком и за предыдущие месяцы, начиная с января 2011 года, Вы можете получить, выбрав интересующий диапазон дат из раскрывающегося списка и нажав кнопку "Ввод!".

Внимание! Время в таблицах - всемирное. Для получения местного времени необходимо прибавить поправку, которая в Mawson равна 0 ч.

Смотрите также архив погоды в соседних городах и на ближайших метеорологических станциях:

Погода в Amery (Антарктида) (459 км)
Погода в Druzhnaya-4 (Антарктида) (497 км)
Погода в Bharati (Антарктида) (578 км)
Погода в Zhongshan (Антарктида) (583 км)
Погода в Progress (Антарктида) (584 км)
Погода в Davis (Антарктида) (634 км)
Погода в Davis (Whoop Whoop) (Антарктида) (669 км)
Погода в Molodezhnaya (Антарктида) (718 км)
Погода в Relay Station (Антарктида) (1007 км)
Погода в Dome Plateau Eagle (Антарктида) (1087 км)

Пояснения к столбцам:

Ветер - указаны скорость ветра в м/с - средняя за 10 мин, порывы в срок и между сроками (в фигурных скобках) и направление, откуда дует ветер: С - северный, СВ - северо-восточный, В - восточный, ЮВ - юго-восточный, Ю - южный, ЮЗ - юго-западный, З - западный, СЗ - северо-западный.
Видимость - горизонтальная дальность видимости в метрах или километрах. При видимости от 1 до 10 км при отсутствии осадков обычно наблюдается дымка, при ухудшении видимости до 1 км и менее - туман. В сухую погоду видимость может ухудшаться дымом, пылью или мглою.
Явления - указаны атмосферные явления, наблюдавшиеся в срок или в последний час перед сроком; фигурными скобками обозначены явления, наблюдавшиеся между сроками (за 1-3 часа до срока); квадратными скобками обозначены град или гололедные отложения с указанием их диаметра в мм.
Облачность - указаны через наклонную черту общая и нижняя облачность в баллах и высота нижней границы облаков в метрах; квадратными скобками обозначены формы облаков: Ci - перистые, Cs - перисто-слоистые, Cc - перисто-кучевые, Ac - высококучевые, As - высокослоистые, Sc - слоисто-кучевые, Ns - слоисто-дождевые, Cu - кучевые, Cb - кучево-дождевые. Подробнее классификацию облаков см. в Атласе облаков (PDF).
T - Температура воздуха - температура, измеренная на высоте 2 м над землей.
Td - Температура точки росы - температура, при понижении до которой содержащийся в воздухе водяной пар достигнет насыщения.
f - Относительная влажность воздуха - влажноcть воздуха, измеренная на высоте 2 м над землей.
Te - Эффективная температура - температура, которую ощущает одетый по сезону человек в тени. Характеристика душности погоды. При расчете учитывается влияние влажности воздуха и скорости ветра на теплоощущения человека.
Tes - Эффективная температура на солнце - температура, которую ощущает человек, с поправкой на солнечный нагрев. Характеристика знойности погоды. Зависит от высоты солнца над горизонтом, облачности и скорости ветра. Ночью, в пасмурную погоду, а также при ветре 12 м/с и более поправка равна нулю.
P - Атмосферное давление - приведенное к уровню моря атмосферное давление.
Po - Атмосферное давление - измеренное на уровне метеостанции атмосферное давление.
Tmin - Минимальная температура - минимум температуры воздуха на высоте 2 м над землей.
Tmax - Максимальная температура - максимум температуры воздуха на высоте 2 м над землей.
R - Количество осадков - Количество выпавших осадков за период времени, мм. При наведении курсора мыши на число - период времени, за который выпало указанное количество осадков.
R24 - Количество осадков - Количество выпавших осадков за 24 часа, мм.
S - Снежный покров - Высота снежного покрова, см. При наведении курсора мыши на число - состояние снежного покрова и степень покрытия местности в баллах.